Location: Carella
(45.8167°N, 9.2667°E)
Time: 23:41:17
(UTC+00:00)

FREGAT/IRIS - Pass Details

Date: 30 March 2020
Orbit: 327 x 333 km, 96.9° (Epoch: 29 May)

Event Time Altitude Azimuth Distance (km) Brightness Sun altitude
Rises 17:20:07 0° 94° (E) 2,113 5.6 4.2°
Enters shadow 18:22:21 -59° 167° (SSE) 11,337 9.9 -6.5°
Maximum altitude 18:52:31 81° 77° (ENE) 346 2.2 -11.6°
